Theta_e
302 302 302 303 302 302 303 304 303 303 304 304 304 304 304 303 305 305 305 305 305 304 305 306 307 308 308 308 309 311 312 314 312 317 320 320 326 324 325 327 331 330 331 334 338 340 340 339 339 341 346 347 346 345
301 302 302 301 300 300 301 302 301 302 303 303 304 304 303 303 304 303 305 305 305 306 305 304 304 307 307 308 308 308 311 312 315 320 321 323 326 329 329 327 326 328 328 332 336 337 347 344 346 345 344 345 344 343
302 301 302 302 301 300 301 302 302 302 302 302 303 303 304 304 304 303 305 303 303 304 305 307 307 307 307 307 307 309 309 311 312 316 319 322 328 329 336 333 333 330 331 327 335 343 344 342 342 341 341 343 348 348
300 301 302 301 300 300 301 302 302 302 303 303 303 303 303 302 301 302 303 303 303 305 306 307 307 308 308 309 309 308 308 310 314 314 316 319 325 325 328 329 335 339 337 338 334 346 342 340 339 339 342 344 345 344
300 300 300 300 300 301 301 300 300 300 301 301 302 303 303 304 302 301 303 304 303 304 308 308 306 307 310 308 309 309 308 310 312 314 315 320 325 326 326 329 330 331 337 343 350 341 343 343 338 338 337 338 340 340
301 301 300 301 301 300 300 300 301 301 301 301 301 301 301 302 302 303 307 305 304 305 307 309 309 310 312 312 309 310 310 309 314 313 314 315 321 325 328 326 327 329 333 339 338 330 329 333 332 331 332 332 331 332
301 301 301 301 301 301 301 302 302 302 302 303 303 301 300 301 302 303 306 305 303 304 307 309 311 315 315 313 311 312 311 314 313 310 312 318 324 324 329 328 329 329 335 330 328 330 331 331 329 326 327 328 327 326
302 301 301 301 301 301 302 302 302 302 302 303 303 302 302 303 303 305 305 304 304 305 305 309 312 316 316 315 314 313 314 315 313 315 318 322 325 325 328 328 327 328 328 332 329 332 333 329 328 325 325 324 325 326
301 301 301 301 302 303 303 303 305 304 304 305 305 305 306 306 307 310 306 306 304 304 307 309 310 319 316 318 319 315 315 318 318 319 318 322 323 325 327 328 327 324 325 326 325 326 327 328 326 327 327 326 325 323
301 301 301 301 302 302 302 303 304 304 305 307 308 310 313 311 308 307 306 306 304 305 305 309 311 315 319 318 318 318 318 322 321 318 318 322 320 323 325 325 324 324 324 323 324 324 325 325 326 326 324 324 327 325
301 301 302 302 302 303 304 304 304 305 309 310 310 311 308 309 310 312 313 309 308 310 309 312 317 321 321 323 324 320 324 322 316 320 325 320 319 323 323 324 324 322 321 322 323 322 322 324 324 325 325 323 325 326
301 301 301 302 303 304 304 305 304 307 308 306 306 307 309 313 313 313 314 314 316 318 317 320 322 322 320 322 321 322 325 323 319 322 321 319 317 322 322 323 323 324 324 323 322 323 321 321 321 324 324 324 325 326
300 301 302 304 306 304 304 305 305 306 308 311 312 313 313 314 316 311 317 318 319 319 319 319 322 320 323 320 321 324 324 325 324 324 323 319 321 322 323 323 324 321 322 324 324 324 325 326 326 326 326 325 325 325
301 300 302 306 306 304 305 306 308 309 310 313 313 316 318 318 317 313 314 317 320 320 319 321 322 326 320 321 320 325 323 325 325 323 324 323 323 323 323 323 323 322 321 321 321 321 322 325 325 325 326 325 325 326
302 301 306 308 306 305 307 309 310 311 313 315 315 322 316 315 315 316 317 319 320 320 321 323 323 322 324 324 324 323 324 322 319 320 323 322 322 324 324 324 324 324 322 321 321 321 322 324 324 324 322 322 322 323
304 305 308 307 306 306 310 312 313 316 316 315 315 314 314 315 316 317 317 318 320 322 320 320 321 321 321 322 323 322 323 320 319 319 320 320 323 325 324 325 326 324 322 323 323 322 322 322 322 321 319 320 319 319
305 309 309 307 306 308 311 313 313 312 312 312 313 314 315 316 317 319 319 319 321 321 321 321 323 324 321 321 320 317 318 318 318 319 320 322 325 324 323 325 324 325 325 324 323 323 323 321 320 319 321 319 318 319
309 309 307 307 306 311 313 312 314 313 312 313 314 315 316 317 318 318 318 319 318 320 320 319 318 319 320 322 321 321 322 321 319 320 322 322 323 324 322 324 323 323 324 319 317 318 320 320 325 321 320 319 317 320
306 307 308 307 307 309 314 312 314 313 313 314 314 316 317 317 319 319 319 318 318 317 318 318 318 321 322 322 323 325 325 326 326 326 326 324 321 323 320 318 323 322 320 319 318 318 317 316 317 317 316 317 317 316
309 310 310 309 309 314 313 314 313 313 315 315 315 317 318 319 318 318 319 320 320 320 321 322 323 324 324 325 324 324 323 325 325 327 326 324 320 319 320 319 320 319 316 316 315 313 315 314 313 313 313 314 315 315
313 312 311 312 314 314 315 315 315 314 315 316 317 320 320 317 319 320 320 319 318 319 319 321 323 323 321 319 316 318 322 321 320 319 320 323 319 317 316 316 315 315 315 314 315 314 312 312 311 310 310 311 311 311
313 311 314 315 316 316 316 314 315 315 317 317 317 319 321 321 322 320 319 318 320 322 322 322 320 315 317 319 316 314 315 317 318 315 316 317 317 318 316 315 314 315 313 312 311 311 310 309 308 308 308 308 309 309
312 313 317 317 318 316 318 316 318 318 319 318 318 319 321 320 319 317 318 320 320 321 319 320 319 316 317 315 312 310 310 312 314 312 312 312 313 313 312 312 312 311 311 309 308 308 308 307 307 307 308 307 307 308
313 315 318 320 320 320 320 320 319 321 319 320 321 322 321 322 320 318 319 319 319 316 315 317 314 314 313 313 311 309 308 308 309 310 309 309 310 310 310 310 309 309 308 307 307 306 306 306 306 307 307 307 307 306
316 317 321 317 321 322 320 319 319 320 321 320 320 320 320 320 320 318 318 315 314 313 313 313 313 313 312 311 310 308 306 305 306 307 306 307 307 307 307 307 306 305 304 304 304 304 305 305 305 305 306 305 305 305
320 323 322 321 322 321 321 320 320 320 319 319 319 320 322 323 319 317 313 310 310 313 312 312 312 312 311 308 308 306 304 303 303 304 304 305 305 305 305 305 305 302 301 302 303 303 303 304 304 304 304 304 303 303
322 323 326 323 322 322 323 323 321 322 321 322 321 321 321 320 316 312 311 310 311 310 308 308 308 308 307 306 305 303 302 301 300 301 301 303 302 301 300 300 300 298 298 300 299 300 300 300 299 299 300 300 300 300
324 324 324 324 323 322 323 321 320 319 318 318 319 319 318 316 314 312 311 311 310 309 307 307 307 306 304 303 302 301 300 299 298 298 298 299 299 298 297 297 297 297 297 297 297 297 297 297 297 297 297 297 298 298
326 322 321 322 321 321 321 319 318 317 315 317 319 317 313 311 310 311 310 310 309 309 309 307 306 304 302 301 300 299 299 298 297 297 297 297 297 295 295 296 296 296 296 296 296 295 294 295 295 295 296 296 295 295
320 322 323 322 321 320 319 318 317 315 314 313 312 312 312 311 311 312 312 311 309 307 306 305 303 301 300 299 299 298 298 297 296 294 294 294 294 294 294 294 294 294 294 295 295 295 294 294 294 294 294 294 293 293
318 318 319 320 321 319 319 317 315 315 315 314 313 314 314 313 311 312 307 306 305 304 303 303 301 300 299 299 298 298 297 297 295 293 291 292 292 292 293 293 293 294 294 294 294 294 294 293 293 293 293 293 292 292
318 318 318 320 321 320 319 320 319 318 316 316 315 315 315 315 314 309 307 305 304 303 302 302 301 300 299 298 297 296 295 296 294 292 291 291 291 291 292 292 292 292 293 293 293 293 292 292 292 292 292 292 292 292
319 318 318 318 319 320 323 323 322 321 319 317 315 315 314 313 311 307 306 305 303 302 301 300 300 300 299 297 296 296 296 294 292 291 291 291 291 290 291 291 291 291 292 292 292 292 292 292 292 292 292 292 292 291
Wind_Speed
28 27 27 26 26 26 23 20 18 17 17 16 14 15 14 10 10 10 12 11 10 4 12 19 23 21 17 13 11 6 7 8 8 6 5 6 9 6 11 17 13 9 8 12 12 15 12 16 10 5 1 4 4 4
25 25 23 22 23 23 21 17 16 16 17 16 15 13 8 9 10 10 10 10 16 6 8 30 33 29 27 23 13 11 10 5 4 4 4 0 6 4 8 10 19 14 13 10 8 8 13 1 11 9 6 4 3 2
23 22 21 22 21 22 21 19 17 17 15 13 11 12 11 11 11 9 10 14 7 3 8 16 18 29 33 37 33 14 12 5 3 3 2 3 5 3 3 6 11 13 12 15 9 2 11 13 11 10 7 7 12 13
22 20 20 20 21 22 20 19 18 16 14 14 13 12 12 10 8 9 9 11 9 3 4 11 15 12 19 22 28 29 22 12 3 2 4 3 3 2 3 6 11 5 16 11 17 13 12 10 10 9 13 16 16 19
21 21 21 20 21 21 20 19 19 18 16 15 13 12 12 10 11 14 16 14 15 4 4 10 29 30 21 19 18 17 17 12 7 2 2 3 4 3 3 3 4 5 6 5 1 9 9 14 16 19 20 21 19 18
21 20 20 21 22 21 20 20 20 20 19 17 15 13 12 11 12 15 2 2 8 8 4 4 13 13 15 14 17 12 10 10 2 3 1 3 6 3 4 1 6 12 1 8 4 15 18 17 21 24 20 21 21 21
22 21 20 21 21 20 21 22 23 23 24 22 19 17 15 13 10 4 5 6 15 12 3 5 7 4 11 5 8 7 8 5 3 2 3 4 2 2 2 2 5 14 12 9 15 20 9 10 17 17 20 20 20 18
22 20 20 20 20 22 26 28 29 29 28 24 19 17 16 15 13 10 9 4 6 3 1 3 5 7 7 9 6 5 6 5 3 3 3 2 1 1 1 4 5 8 16 13 14 12 12 11 14 15 17 17 19 16
23 22 21 21 22 26 34 35 31 30 28 18 18 16 7 5 3 1 1 3 2 1 2 2 3 4 7 2 3 7 8 6 4 3 2 2 2 2 5 5 7 9 9 11 14 15 15 17 19 17 17 16 14 12
22 24 24 25 28 32 35 35 34 27 18 15 10 5 3 2 3 8 2 1 1 2 3 4 5 4 4 5 4 5 2 3 1 2 2 4 3 5 9 7 6 5 4 9 15 12 12 15 15 15 14 14 14 7
22 25 29 29 28 30 37 33 28 23 11 6 3 2 11 9 3 2 2 3 3 3 3 4 9 6 5 2 2 3 1 4 1 3 2 3 4 6 11 9 7 3 4 9 12 14 14 13 11 10 10 10 9 9
25 29 33 27 25 31 35 30 24 15 11 7 9 10 6 1 3 4 4 4 2 3 3 5 10 7 2 3 1 3 3 3 2 3 4 3 4 6 4 3 4 2 6 10 12 13 13 12 11 9 8 9 8 11
28 31 33 22 26 37 36 24 17 12 11 4 4 3 3 1 2 2 6 3 4 3 3 8 6 4 5 6 2 1 5 3 1 3 4 2 4 5 7 6 4 3 4 8 5 6 9 8 9 8 6 9 12 10
30 32 30 20 28 39 31 18 10 8 4 3 5 6 5 5 4 4 6 4 7 6 9 6 10 3 5 4 1 0 3 2 5 5 4 2 2 5 6 6 4 7 13 14 15 14 11 16 12 15 15 14 13 13
31 32 19 18 35 34 19 12 7 5 4 4 4 4 8 8 12 10 5 5 1 7 9 6 2 3 7 4 5 5 5 5 4 5 2 4 8 7 8 7 7 6 7 12 10 10 13 13 9 7 11 12 13 11
30 22 9 31 35 28 14 11 7 4 2 2 5 10 11 13 13 13 12 13 12 10 5 4 7 4 6 4 8 9 4 5 4 3 3 5 6 9 10 9 9 9 6 6 8 9 11 10 9 10 14 11 10 8
23 5 28 31 31 17 10 7 5 4 5 4 8 10 11 8 8 10 11 13 13 12 12 5 8 8 6 5 5 4 2 2 3 3 3 4 7 7 7 10 9 7 7 8 11 13 9 13 7 5 6 2 5 6
9 21 26 23 27 15 1 5 5 4 7 6 7 8 6 9 11 10 10 10 9 11 9 10 7 8 4 4 2 3 2 2 2 2 1 4 4 4 4 6 5 9 11 13 8 7 10 10 2 5 4 5 1 8
21 21 18 22 14 6 3 4 6 6 6 9 7 9 9 7 9 10 9 9 11 9 11 9 6 7 9 7 10 9 8 5 5 5 4 6 1 5 13 6 5 10 10 11 13 11 12 14 13 13 15 9 11 12
11 11 18 9 8 5 3 2 3 4 5 6 7 7 10 11 10 12 14 14 12 11 10 8 9 9 9 9 8 7 7 5 5 6 6 6 10 12 10 10 10 11 12 12 12 17 13 13 18 19 17 13 11 10
8 11 7 9 1 7 5 5 4 3 4 5 8 8 4 6 10 12 10 11 12 5 5 7 8 8 10 11 14 11 8 9 9 8 8 7 10 13 12 12 13 14 12 13 8 9 13 14 14 15 15 16 15 13
7 12 5 4 4 4 1 4 2 4 4 5 6 5 5 7 7 6 6 11 6 5 4 4 7 10 10 13 16 25 25 18 11 9 6 5 6 3 4 7 6 5 12 12 13 12 14 16 12 14 12 12 13 12
10 4 4 2 3 2 3 1 2 5 4 3 3 3 4 3 2 3 4 5 4 3 2 2 4 15 13 17 21 25 28 23 11 15 17 17 9 9 10 9 7 6 6 13 15 16 15 13 14 13 12 13 13 12
6 4 4 5 3 3 3 1 3 2 1 3 3 3 2 3 3 3 7 8 8 12 11 11 13 8 12 15 11 16 21 22 19 16 16 16 11 15 18 18 20 18 18 15 14 14 14 13 13 12 12 12 12 12
4 4 2 4 1 4 4 5 5 5 4 2 1 1 1 3 3 3 4 6 9 10 10 14 13 9 10 10 12 16 20 21 18 11 18 17 12 12 14 15 17 23 20 19 17 17 15 16 18 20 19 18 14 13
2 2 2 7 4 5 6 5 6 5 4 5 5 3 4 3 4 4 2 4 6 10 9 11 11 10 10 14 11 14 18 22 21 17 19 20 22 18 13 10 9 19 22 20 19 20 20 20 19 18 15 16 18 16
3 6 4 3 4 2 2 4 5 5 5 4 5 6 1 4 3 2 4 6 4 10 13 16 12 10 9 15 18 18 20 21 22 21 21 17 21 20 19 18 17 19 19 18 18 19 17 18 20 20 20 16 15 16
2 2 8 8 5 6 5 8 7 7 6 5 2 6 4 4 3 2 3 6 9 10 8 7 8 14 20 19 18 18 18 20 21 22 21 19 20 21 20 18 18 18 18 13 16 16 15 17 18 17 16 16 18 18
4 4 1 3 8 4 5 5 4 6 9 8 4 4 3 2 2 2 5 8 7 8 11 12 14 16 17 17 16 18 16 17 19 16 16 11 14 19 19 19 19 18 18 18 16 9 12 15 15 14 15 17 17 18
6 7 4 9 10 5 5 5 8 10 11 10 6 5 4 4 2 3 6 10 13 8 13 16 16 17 16 16 15 15 16 16 17 17 11 11 16 18 18 19 18 18 18 17 16 15 17 17 17 17 17 17 18 17
4 4 3 6 4 4 7 3 7 7 7 7 5 4 5 3 2 6 9 14 15 16 14 13 13 13 14 14 14 13 13 14 15 16 17 15 15 15 16 17 17 18 17 17 15 17 18 17 16 16 15 15 16 15
2 6 7 5 4 7 5 2 1 3 2 7 3 3 3 4 2 1 10 16 15 13 10 10 10 9 10 12 13 13 11 10 12 13 16 14 14 13 15 18 18 19 18 17 16 16 16 15 14 15 15 15 15 16
3 6 4 4 1 5 7 4 3 3 2 2 2 2 5 4 4 4 10 14 11 11 13 15 12 10 10 11 13 13 8 6 6 10 14 13 13 12 13 15 17 19 17 14 13 13 14 15 15 16 16 17 17 17
Wind_Direction
337 339 340 341 343 341 333 327 328 324 321 321 320 318 309 286 287 278 271 264 216 225 269 270 274 276 282 265 263 293 300 228 228 169 197 187 262 234 243 255 228 220 224 224 224 211 224 163 153 202 56 110 75 26
341 344 348 350 350 354 356 352 345 342 334 324 322 328 318 302 298 293 276 285 264 238 276 290 280 265 263 268 276 261 250 268 317 293 232 132 248 296 309 258 258 248 244 249 248 243 110 131 72 70 131 117 74 354
346 347 349 352 354 355 354 352 350 345 344 349 341 335 326 312 301 286 280 290 276 299 277 256 257 260 248 244 241 253 265 221 231 109 258 283 263 330 311 284 297 267 284 226 246 222 118 127 126 128 119 128 49 41
359 358 354 353 352 352 353 354 351 348 340 337 333 329 327 321 310 291 287 280 245 260 272 289 291 277 271 277 219 228 244 261 141 80 327 290 288 61 322 318 311 323 317 275 230 149 111 126 121 128 112 90 77 64
-0 0 358 355 354 351 348 349 348 343 337 331 328 320 315 303 313 309 289 271 254 236 296 298 299 273 257 238 210 209 220 240 265 3 32 284 315 340 318 265 281 346 312 319 15 358 312 140 134 100 83 73 81 83
354 350 349 350 350 349 351 350 347 342 336 328 321 314 306 302 300 312 288 297 253 222 288 297 317 301 356 282 196 196 203 224 41 81 328 260 233 241 253 92 256 295 200 303 83 66 358 81 82 80 77 83 68 61
355 353 349 349 349 346 343 340 339 336 335 325 309 300 299 301 298 258 277 294 304 311 273 299 298 292 334 303 174 183 188 85 99 86 240 254 181 202 256 250 304 299 108 115 88 87 38 10 68 68 72 63 72 68
355 353 351 349 348 347 342 334 328 329 329 325 311 299 293 293 285 269 275 277 238 227 265 277 274 310 206 196 163 138 153 142 155 198 245 251 97 285 281 304 19 353 67 79 159 151 136 105 88 78 69 71 67 54
352 350 346 344 341 340 343 342 333 325 326 315 308 308 296 233 242 261 264 140 176 223 295 280 293 306 10 27 304 164 200 176 150 227 242 267 13 19 309 4 68 44 62 106 78 71 85 82 96 86 76 59 59 34
342 339 335 330 327 329 336 340 335 330 322 315 313 198 257 240 212 119 96 137 272 206 223 247 219 249 266 211 215 177 155 98 296 258 254 39 26 353 0 29 58 97 125 117 108 100 94 89 83 77 73 79 77 97
342 342 339 333 331 332 340 341 336 338 354 336 311 327 328 322 276 215 238 206 181 248 214 249 259 281 217 222 262 59 202 124 136 261 151 69 8 356 11 39 15 75 78 81 99 113 101 96 98 84 76 64 52 55
335 338 340 335 332 335 345 342 336 342 341 312 297 290 272 332 343 311 282 281 247 295 256 273 312 290 97 95 336 12 9 71 355 351 57 47 298 6 35 50 59 47 154 115 107 106 105 96 92 82 76 81 62 49
331 335 339 332 334 342 345 341 340 335 327 274 234 295 324 200 351 332 332 341 300 264 258 304 304 333 355 21 3 187 11 47 248 56 58 20 22 25 345 344 26 60 71 117 113 84 72 91 94 81 79 50 53 42
329 332 336 326 334 341 340 344 349 344 300 8 342 348 360 327 311 161 251 253 259 268 309 317 340 146 196 207 215 335 168 80 41 36 55 47 337 318 233 234 38 11 52 56 60 76 75 81 76 75 70 72 70 45
327 330 330 329 334 338 339 336 323 311 286 3 358 315 354 336 356 7 232 289 21 276 297 313 162 282 28 40 22 11 53 52 43 357 45 341 321 318 26 27 54 74 63 68 60 60 65 71 87 97 104 95 75 69
328 332 345 330 333 343 345 327 273 252 264 6 325 355 358 1 5 347 340 352 344 355 40 20 26 28 32 30 27 19 50 23 353 347 351 315 19 39 30 10 26 47 58 54 57 55 73 71 59 51 44 64 66 54
330 277 323 329 337 344 330 311 313 344 10 44 360 17 14 354 348 350 328 358 351 14 40 39 28 15 36 33 26 29 359 294 320 357 350 337 43 44 24 16 24 31 36 37 30 26 34 88 107 73 73 79 93 95
294 315 322 345 345 341 304 353 314 355 32 15 13 38 356 353 354 6 18 6 4 25 35 60 61 57 63 26 21 336 73 136 211 248 48 39 44 79 15 321 25 57 52 64 30 21 23 15 75 18 122 115 353 170
307 314 335 352 340 309 335 31 331 356 19 7 11 42 42 359 343 7 25 32 42 37 46 51 50 40 43 35 37 40 40 51 65 66 54 56 128 96 149 233 18 65 65 56 33 55 59 24 30 54 360 44 69 20
318 324 336 346 322 298 357 349 271 356 12 332 18 21 27 31 7 33 39 34 34 33 37 44 51 45 41 36 29 37 39 53 67 50 44 25 6 24 35 43 50 65 60 52 51 32 34 38 24 12 14 9 358 17
344 331 351 5 171 10 356 352 4 27 322 307 25 60 24 47 42 35 29 47 54 52 50 48 63 63 56 45 32 30 29 40 50 48 37 33 37 36 22 48 26 31 39 30 24 38 35 36 17 359 347 338 1 333
338 349 326 3 359 13 79 39 353 311 303 354 15 57 49 40 31 13 32 53 48 36 27 8 46 52 52 39 24 14 7 9 76 39 24 46 47 15 23 35 42 34 38 30 13 16 24 24 13 344 341 1 346 348
336 308 304 357 10 54 256 280 355 338 7 0 10 34 82 72 64 346 49 26 19 327 118 359 36 55 43 55 47 21 5 2 28 37 4 1 36 36 356 15 51 48 31 28 9 17 7 0 7 341 357 0 340 351
331 324 339 354 350 309 284 184 190 229 317 20 27 358 70 113 104 60 65 32 23 32 27 11 25 25 37 29 33 35 7 6 6 23 20 4 3 4 23 39 39 36 27 27 18 1 350 347 333 343 356 341 360 6
328 336 300 302 264 327 354 354 39 21 338 320 81 128 130 57 81 64 38 346 359 18 13 7 20 24 24 14 17 23 19 9 5 355 9 356 4 12 17 11 37 48 19 5 352 340 343 346 347 360 357 13 9 350
5 126 24 356 14 9 342 7 358 355 342 331 9 42 25 5 60 67 23 315 339 17 21 15 8 358 359 360 6 12 20 10 6 359 352 348 33 31 26 12 9 17 359 350 356 0 356 357 2 6 359 353 0 357
345 34 1 322 291 72 342 340 358 20 9 351 344 338 40 82 65 63 22 30 12 14 357 345 353 351 353 9 9 12 20 9 10 352 340 18 41 36 20 9 16 8 346 6 2 351 2 359 357 349 343 343 333 332
325 340 359 21 319 65 26 31 19 8 337 324 61 18 30 47 70 71 350 330 331 330 340 323 317 9 10 6 8 15 21 14 8 5 358 17 24 24 12 360 360 358 352 12 8 355 5 357 346 345 340 331 345 0
253 195 133 47 50 72 39 50 10 17 12 352 38 44 59 24 352 293 334 334 321 317 315 359 16 19 6 5 17 16 28 25 14 14 9 5 6 6 1 359 0 359 358 354 356 14 29 358 343 349 356 3 3 2
338 117 169 59 50 66 45 33 56 61 62 69 93 113 119 184 224 283 305 303 310 360 13 8 23 27 6 9 12 16 18 41 33 21 2 352 356 358 356 1 0 359 356 353 356 357 21 -0 6 7 9 4 9 357
359 16 73 76 86 128 111 65 89 106 114 96 104 120 132 125 280 290 7 2 2 13 18 6 22 36 13 9 10 14 2 31 40 23 9 354 358 360 358 1 0 359 355 348 358 12 13 6 8 9 7 1 3 355
58 27 353 111 109 113 137 155 250 194 123 128 170 167 137 165 145 21 7 8 7 9 18 5 21 36 33 1 12 5 360 36 29 25 18 16 13 8 -0 8 2 359 355 357 4 11 11 8 8 3 359 0 357 354
41 53 348 355 160 171 134 133 194 233 169 191 128 102 63 45 89 4 9 20 14 17 7 355 9 38 41 26 11 353 16 86 83 59 38 30 15 3 358 6 7 3 357 11 13 14 11 12 9 7 5 3 358 354